CFG47T EDDN-EDDV

Flight info

Callsign CFG47T
Flight time 0h 38m
Altitude 24000
Route SULUS1C SULUS L604 MASEK Z99 ELNAT P605 WERRA WERRA1Z
Aircraft A321/M-SDE3FGHIRWY/LB1

Departure

Time 2026-05-01 08:51
Airport Nuremberg Airport (EDDN)

Arrival

Time 2026-05-01 09:29
Airport Hannover Airport (EDDV)
Time Latitude Longitude Altitude Speed Heading
2026-05-01 08:38 49.49542 11.07586 1026 ft 0 kts 188°
2026-05-01 08:44 49.49547 11.07587 1024 ft 3 kts 188°
2026-05-01 08:44 49.49566 11.07591 1026 ft 3 kts 189°
2026-05-01 08:44 49.49585 11.07601 1026 ft 3 kts 220°
2026-05-01 08:45 49.49597 11.07623 1025 ft 3 kts 250°
2026-05-01 08:45 49.49601 11.07644 1026 ft 0 kts 272°
2026-05-01 08:46 49.49603 11.07589 1026 ft 16 kts 276°
2026-05-01 08:46 49.49626 11.07339 1025 ft 17 kts 277°
2026-05-01 08:47 49.49656 11.07232 1023 ft 10 kts 335°
2026-05-01 08:47 49.49669 11.07230 1022 ft 5 kts 354°
2026-05-01 08:47 49.49736 11.07176 1022 ft 14 kts 291°
2026-05-01 08:47 49.49751 11.07039 1021 ft 13 kts 277°
2026-05-01 08:48 49.49763 11.06909 1020 ft 12 kts 277°
2026-05-01 08:48 49.49776 11.06782 1019 ft 14 kts 279°
2026-05-01 08:48 49.49792 11.06629 1020 ft 15 kts 278°
2026-05-01 08:48 49.49807 11.06482 1020 ft 14 kts 279°
2026-05-01 08:49 49.49823 11.06340 1018 ft 13 kts 278°
2026-05-01 08:49 49.49836 11.06209 1019 ft 13 kts 277°
2026-05-01 08:49 49.49867 11.06005 1021 ft 26 kts 307°
2026-05-01 08:49 49.50005 11.05926 1024 ft 17 kts
2026-05-01 08:50 49.50045 11.06037 1024 ft 0 kts 97°
2026-05-01 08:50 49.50045 11.06039 1024 ft 2 kts 96°
2026-05-01 08:50 49.50021 11.06293 1021 ft 66 kts 98°
2026-05-01 08:51 49.49899 11.07418 1028 ft 144 kts 101°
2026-05-01 08:51 49.49721 11.09126 1440 ft 174 kts 99°
2026-05-01 08:51 49.49540 11.10970 2266 ft 172 kts 99°
2026-05-01 08:51 49.49359 11.12850 2731 ft 187 kts 99°
2026-05-01 08:52 49.49155 11.14939 2995 ft 208 kts 99°
2026-05-01 08:52 49.49125 11.17302 3244 ft 235 kts 81°
2026-05-01 08:52 49.49728 11.19732 3815 ft 251 kts 60°
2026-05-01 08:52 49.50917 11.21706 4643 ft 260 kts 43°
2026-05-01 08:53 49.52337 11.23443 5487 ft 261 kts 42°
2026-05-01 08:53 49.53768 11.25191 6312 ft 264 kts 41°
2026-05-01 08:53 49.55216 11.26961 7156 ft 267 kts 41°
2026-05-01 08:53 49.56785 11.28549 7929 ft 274 kts 25°
2026-05-01 08:54 49.58682 11.29090 8652 ft 285 kts 359°
2026-05-01 08:54 49.60601 11.28237 9413 ft 295 kts 331°
2026-05-01 08:54 49.62245 11.26299 10188 ft 299 kts 322°
2026-05-01 08:54 49.63864 11.24221 10730 ft 310 kts 322°
2026-05-01 08:55 49.65585 11.22010 10895 ft 333 kts 322°
2026-05-01 08:55 49.67430 11.19645 11036 ft 355 kts 322°
2026-05-01 08:55 49.69366 11.17168 11463 ft 365 kts 322°
2026-05-01 08:55 49.71340 11.14642 12067 ft 370 kts 322°
2026-05-01 08:56 49.73337 11.12085 12707 ft 374 kts 322°
2026-05-01 08:56 49.75351 11.09501 13336 ft 378 kts 322°
2026-05-01 08:56 49.77386 11.06890 13966 ft 382 kts 323°
2026-05-01 08:56 49.79417 11.04291 14530 ft 385 kts 323°
2026-05-01 08:57 49.81492 11.01636 15087 ft 388 kts 323°
2026-05-01 08:57 49.83583 10.98956 15641 ft 391 kts 323°
2026-05-01 08:57 49.85685 10.96252 16214 ft 393 kts 323°
2026-05-01 08:57 49.87797 10.93530 16750 ft 396 kts 323°
2026-05-01 08:58 49.89923 10.90790 17291 ft 398 kts 323°
2026-05-01 08:58 49.92068 10.88015 17816 ft 401 kts 323°
2026-05-01 08:58 49.94195 10.85258 18327 ft 403 kts 323°
2026-05-01 08:58 49.96358 10.82450 18795 ft 406 kts 323°
2026-05-01 08:59 49.98533 10.79625 19208 ft 408 kts 323°
2026-05-01 08:59 50.00718 10.76789 19665 ft 410 kts 323°
2026-05-01 08:59 50.02914 10.73936 20083 ft 411 kts 323°
2026-05-01 08:59 50.05117 10.71067 20522 ft 413 kts 322°
2026-05-01 09:00 50.07328 10.68184 20957 ft 415 kts 322°
2026-05-01 09:00 50.09551 10.65288 21390 ft 417 kts 322°
2026-05-01 09:00 50.11756 10.62414 21822 ft 419 kts 322°
2026-05-01 09:00 50.13998 10.59493 22262 ft 421 kts 322°
2026-05-01 09:01 50.16256 10.56548 22705 ft 423 kts 322°
2026-05-01 09:01 50.18517 10.53584 23162 ft 425 kts 322°
2026-05-01 09:01 50.20790 10.50593 23624 ft 428 kts 322°
2026-05-01 09:01 50.23022 10.47492 24048 ft 431 kts 316°
2026-05-01 09:02 50.25116 10.44111 24338 ft 433 kts 316°
2026-05-01 09:02 50.27219 10.40725 24411 ft 434 kts 316°
2026-05-01 09:02 50.29307 10.37373 24428 ft 434 kts 316°
2026-05-01 09:02 50.31412 10.33983 24430 ft 434 kts 316°
2026-05-01 09:03 50.33516 10.30583 24428 ft 434 kts 316°
2026-05-01 09:03 50.35605 10.27162 24413 ft 435 kts 315°
2026-05-01 09:03 50.37617 10.23611 24428 ft 435 kts 313°
2026-05-01 09:03 50.39618 10.20045 24430 ft 435 kts 314°
2026-05-01 09:04 50.41664 10.16544 24428 ft 434 kts 315°
2026-05-01 09:04 50.43750 10.13107 24433 ft 434 kts 316°
2026-05-01 09:04 50.45835 10.09687 24429 ft 434 kts 315°
2026-05-01 09:04 50.47910 10.06233 24424 ft 434 kts 315°
2026-05-01 09:05 50.49944 10.02784 24427 ft 434 kts 314°
2026-05-01 09:05 50.51982 9.99285 24422 ft 434 kts 314°
2026-05-01 09:05 50.54028 9.95757 24424 ft 434 kts 314°
2026-05-01 09:05 50.56030 9.92186 24425 ft 435 kts 313°
2026-05-01 09:06 50.57984 9.88536 24418 ft 435 kts 311°
2026-05-01 09:06 50.59905 9.84845 24421 ft 435 kts 311°
2026-05-01 09:06 50.61787 9.81185 24415 ft 435 kts 311°
2026-05-01 09:06 50.63693 9.77486 24418 ft 435 kts 311°
2026-05-01 09:07 50.65613 9.73782 24412 ft 435 kts 311°
2026-05-01 09:07 50.67540 9.70091 24413 ft 435 kts 311°
2026-05-01 09:07 50.69656 9.66706 24413 ft 431 kts 323°
2026-05-01 09:07 50.72136 9.64085 24416 ft 428 kts 334°
2026-05-01 09:08 50.74877 9.62292 24410 ft 424 kts 345°
2026-05-01 09:08 50.77729 9.61376 24411 ft 422 kts 356°
2026-05-01 09:08 50.80657 9.61162 24404 ft 421 kts 359°
2026-05-01 09:08 50.83584 9.60824 24401 ft 422 kts 356°
2026-05-01 09:09 50.86512 9.60289 24406 ft 423 kts 354°
2026-05-01 09:09 50.89434 9.59664 24406 ft 423 kts 354°
2026-05-01 09:09 50.92356 9.59028 24412 ft 424 kts 354°
2026-05-01 09:09 50.95282 9.58424 24415 ft 423 kts 354°
2026-05-01 09:10 50.98214 9.57866 24415 ft 423 kts 355°
2026-05-01 09:10 51.01109 9.57354 24408 ft 423 kts 355°
2026-05-01 09:10 51.04040 9.56857 24414 ft 423 kts 355°
2026-05-01 09:10 51.06969 9.56364 24409 ft 423 kts 355°
2026-05-01 09:11 51.08908 9.56035 24414 ft 423 kts 355°
2026-05-01 09:11 51.11839 9.55534 24417 ft 423 kts 355°
2026-05-01 09:11 51.14770 9.55025 24414 ft 423 kts 355°
2026-05-01 09:11 51.17705 9.54508 24413 ft 424 kts 355°
2026-05-01 09:12 51.20640 9.53983 24416 ft 423 kts 355°
2026-05-01 09:12 51.23576 9.53454 24413 ft 424 kts 355°
2026-05-01 09:12 51.26503 9.52925 24419 ft 424 kts 355°
2026-05-01 09:12 51.29441 9.52400 24410 ft 424 kts 355°
2026-05-01 09:13 51.32343 9.51881 24420 ft 424 kts 355°
2026-05-01 09:13 51.35271 9.51359 24409 ft 423 kts 355°
2026-05-01 09:13 51.38208 9.50840 23668 ft 426 kts 355°
2026-05-01 09:13 51.41171 9.50312 22779 ft 427 kts 355°
2026-05-01 09:14 51.44108 9.49788 22028 ft 424 kts 355°
2026-05-01 09:14 51.47041 9.49265 21395 ft 419 kts 355°
2026-05-01 09:14 51.49907 9.48752 20942 ft 409 kts 355°
2026-05-01 09:14 51.52703 9.48248 20488 ft 400 kts 355°
2026-05-01 09:15 51.55445 9.47752 20047 ft 391 kts 355°
2026-05-01 09:15 51.58134 9.47265 19610 ft 385 kts 356°
2026-05-01 09:15 51.60777 9.46788 19172 ft 379 kts 356°
2026-05-01 09:15 51.63376 9.46320 18728 ft 373 kts 356°
2026-05-01 09:16 51.65944 9.45857 18255 ft 368 kts 356°
2026-05-01 09:16 51.68444 9.45403 17824 ft 363 kts 356°
2026-05-01 09:16 51.70939 9.44950 17385 ft 358 kts 356°
2026-05-01 09:17 51.75869 9.44060 16512 ft 354 kts 356°
2026-05-01 09:17 51.78311 9.43618 16075 ft 352 kts 356°
2026-05-01 09:17 51.83136 9.42748 15193 ft 348 kts 356°
2026-05-01 09:18 51.85544 9.42310 14757 ft 347 kts 356°
2026-05-01 09:18 51.90328 9.41426 13836 ft 344 kts 356°
2026-05-01 09:19 51.95061 9.40565 12936 ft 340 kts 356°
2026-05-01 09:19 51.97408 9.40138 12487 ft 337 kts 356°
2026-05-01 09:19 51.99738 9.39712 12026 ft 336 kts 356°
2026-05-01 09:20 52.04336 9.38862 11138 ft 332 kts 356°
2026-05-01 09:20 52.08763 9.38036 10834 ft 308 kts 357°
2026-05-01 09:21 52.12952 9.37268 10349 ft 299 kts 357°
2026-05-01 09:21 52.15026 9.36895 10222 ft 299 kts 357°
2026-05-01 09:21 52.19165 9.36144 9684 ft 300 kts 357°
2026-05-01 09:22 52.23292 9.35376 8772 ft 297 kts 356°
2026-05-01 09:22 52.27401 9.34604 7986 ft 294 kts 356°
2026-05-01 09:23 52.29438 9.34221 7546 ft 295 kts 356°
2026-05-01 09:23 52.33597 9.33445 6288 ft 298 kts 356°
2026-05-01 09:24 52.37611 9.32696 5018 ft 282 kts 355°
2026-05-01 09:24 52.39528 9.32346 4544 ft 267 kts 358°
2026-05-01 09:24 52.43035 9.32119 3886 ft 244 kts 15°
2026-05-01 09:25 52.45651 9.35102 3411 ft 225 kts 65°
2026-05-01 09:25 52.46126 9.39877 3313 ft 206 kts 93°
2026-05-01 09:26 52.46124 9.42249 3159 ft 209 kts 92°
2026-05-01 09:26 52.46075 9.46946 3018 ft 206 kts 95°
2026-05-01 09:26 52.46011 9.49286 3015 ft 205 kts 96°
2026-05-01 09:27 52.45863 9.54003 2255 ft 219 kts 95°
2026-05-01 09:27 52.45796 9.56531 1856 ft 221 kts 95°
2026-05-01 09:27 52.45729 9.59077 1354 ft 224 kts 94°
2026-05-01 09:28 52.45665 9.61532 1003 ft 203 kts 95°
2026-05-01 09:28 52.45609 9.63682 711 ft 175 kts 96°
2026-05-01 09:28 52.45560 9.65502 493 ft 152 kts 95°
2026-05-01 09:28 52.45513 9.67185 288 ft 144 kts 95°
2026-05-01 09:29 52.45439 9.69769 183 ft 62 kts 92°
2026-05-01 09:29 52.45424 9.70359 184 ft 45 kts 93°
2026-05-01 09:30 52.45483 9.70669 184 ft 7 kts
2026-05-01 09:30 52.45523 9.70673 185 ft 5 kts
2026-05-01 09:30 52.45584 9.70449 183 ft 15 kts 272°
2026-05-01 09:31 52.45589 9.70292 186 ft 13 kts 273°
2026-05-01 09:31 52.45594 9.70154 186 ft 12 kts 274°
2026-05-01 09:31 52.45610 9.69864 184 ft 11 kts 301°
2026-05-01 09:32 52.45665 9.69786 190 ft 12 kts 302°
2026-05-01 09:32 52.45690 9.69519 183 ft 10 kts 302°
2026-05-01 09:32 52.45723 9.69467 183 ft 0 kts 309°
2026-05-01 09:33 52.45728 9.69458 182 ft 3 kts 309°
2026-05-01 09:33 52.45750 9.69444 182 ft 3 kts
2026-05-01 09:33 52.45783 9.69491 182 ft 3 kts 50°
2026-05-01 09:34 52.45798 9.69521 181 ft 4 kts 52°
2026-05-01 09:34 52.45808 9.69542 180 ft 0 kts 52°